Miscellaneous Local Product
Issued by NWS Hastings, NE

Home | Current Version | Previous Version | Text Only | Print | Product List | Glossary On
Versions: 1 2 3 4 5 6 7 8 9 10 11 12 13 14 15 16 17 18 19 20 21 22 23 24 25 26 27 28 29 30 31 32 33 34 35 36 37 38 39 40 41 42 43 44 45 46 47 48 49 50
000
AXUS43 KGID 042202
MISGRI

GID CWA HOURLY WEATHER ROUNDUP
NATIONAL WEATHER SERVICE HASTINGS NE
500 PM CDT TUE AUG 04 2015

NOTE: "FAIR" INDICATES FEW OR NO CLOUDS BELOW 12,000 FEET WITH NO
SIGNIFICANT WEATHER AND/OR OBSTRUCTIONS TO VISIBILITY.

...SOUTH CENTRAL NEBRASKA...

CITY           SKY/WX    TMP DP  RH WIND       PRES   REMARKS
GRAND ISLAND   CLOUDY    81  69  67 SE10      29.92F
HASTINGS       CLOUDY    81  69  67 S10       29.94R
KEARNEY        CLOUDY    70  61  73 S23G37    29.97R THUNDER
ORD            CLOUDY    80  66  62 SE6       29.91F
YORK           PTSUNNY   82  72  69 S10       29.93R
AURORA         CLOUDY    81  72  72 S12       29.92R
LEXINGTON      RAIN      68  67  97 SW7       29.96R
HOLDREGE       TSTM      64  60  88 SW15G24   29.99F
HEBRON         CLOUDY    78  64  62 S20G26    29.96R

...NEBRASKA PANHANDLE...

CITY           SKY/WX    TMP DP  RH WIND       PRES   REMARKS
CHADRON        PTSUNNY   83  61  47 S16       29.94F
ALLIANCE       PTSUNNY   73  62  68 SE18      29.99F
SCOTTSBLUFF    TSTM      64  60  87 E7        30.01R FOG
SIDNEY         CLOUDY    74  58  57 E12       30.04F

...WESTERN AND NORTH CENTRAL NEBRASKA...

CITY           SKY/WX    TMP DP  RH WIND       PRES   REMARKS
VALENTINE      NOT AVBL
AINSWORTH      CLOUDY    76  66  69 E10       29.97S
ONEILL         PTSUNNY   77  65  66 E10       29.97S
BROKEN BOW     CLOUDY    73  64  73 S6        29.92F
IMPERIAL       CLOUDY    68  60  75 CALM      29.99S
NORTH PLATTE   LGT RAIN  67  64  90 E15       29.89F
MCCOOK         CLOUDY    63  62  97 SE5       29.97S

...EASTERN NEBRASKA...

CITY           SKY/WX    TMP DP  RH WIND       PRES   REMARKS
NORFOLK        PTSUNNY   77  63  61 E9        29.95F
SO SIOUX CITY  SUNNY     80  60  50 VRB7      29.97S
TEKAMAH        MOSUNNY   79  65  62 E8        29.96S
COLUMBUS       PTSUNNY   75  64  69 NE10      29.95R
ALBION         CLOUDY    74  65  74 NE12      29.96R
OMAHA EPPLEY   PTSUNNY   77  67  71 NE7       29.96R
OFFUTT AFB     CLOUDY    78  70  77 N13       29.94R
MILLARD        CLOUDY    74  67  77 N8        29.95R
LINCOLN        MOSUNNY   87  67  51 S18G26    29.91S HX  90
NEBRASKA CITY  SUNNY     82  66  57 S12       29.92F
BEATRICE       MOSUNNY   83  71  67 S17       29.93R
FALLS CITY     PTSUNNY   81  73  76 SE10      29.93R

...NORTHERN KANSAS...

CITY           SKY/WX    TMP DP  RH WIND       PRES   REMARKS
GOODLAND       MOSUNNY   84  60  44 NE18G30   29.98R
HILL CITY      CLOUDY    76  69  79 S17G23    29.96R THUNDER
NORTON         HVY RAIN  61  55  82 N6G20     29.98R
PHILLIPSBURG   PTSUNNY   75  70  83 NE6       29.92R
SMITH CENTER   MOSUNNY   72  70  94 NE6       29.94R
HAYS           MOSUNNY   88  63  42 SE17G24   29.90S
RUSSELL        MOSUNNY   86  64  47 S16G25    29.90S
CONCORDIA      LGT RAIN  72  70  93 E10       29.94R
SALINA         PTSUNNY   85  68  56 S12       29.92R
TOPEKA         CLOUDY    72  71  97 NW6       29.97R



USA.gov is the U.S. government's official web portal to all federal, state and local government web resources and services.